Location: Saalfelden+am+Steinernen+Meer
(47.4274°N, 12.8411°E)
Time: 13:56:28
(UTC+01:00)

ISS - Visible Passes

Search period start: 16 January 2018 00:00
Search period end: 26 January 2018 00:00
Orbit: 402 x 406 km, 51.6° (Epoch: 16 January)

Date Brightness Start Highest point End Pass type
(mag) Time Alt. Az. Time Alt. Az. Time Alt. Az.
16 Jan -1.4 06:09:48 12° SSW 06:09:48 12° SSW 06:10:43 10° SSW visible
24 Jan -1.1 19:02:03 10° S 19:02:12 11° S 19:02:12 11° S visible
25 Jan -0.7 19:44:38 10° SW 19:44:54 12° SW 19:44:54 12° SW visible
